DELTA 1 DEB, 42088

Orbit data source: Space-Track

DELTA 1 DEB, 42088 is space debris in SSO originally from a launch on Sun, 15 Dec 1968 UTC launched from the Air Force Western Test Range (AFWTR). Debris objects in space refer to the collection of defunct objects orbiting the Earth. Examples of debris include non-operational satellites, rocket bodies, and fragments generated from explosions, collisions, or faulty payload assembly.

Loading next visibility...
DELTA 1 DEB details
Identifier
42088, 1968-114Q
Orbit
SSO
Last TLE update3 months ago
Origin
Flag of USGSFC (US)
ManufacturerAerojet
MissionSpacecraft
Bus & MotorUnknown
MassUnknown
Launch date (UTC)
1968-12-15 (56 years ago)
Launch vehicleUnknown
Launch site
Air Force Western Test Range (AFWTR)
Object type
Payload
Rocket body
Debris
Shape & HBRUnknown
Radar Cross SectionSmall (<0.1 m²)

Expand to show TLE details & history

TLE from 3 months ago
0 DELTA 1 DEB
1 42088U 68114Q   24274.08736838  .00000011  00000-0  36304-3 0  9995
2 42088 101.6227 225.7779 0021412  46.4269 313.8575 12.48844283895450
Epoch: 2024-09-30T02:05Z
Definitive object data (Epoch: 2024-09-30T02:05:48.628Z)
Latitude0.00005°
Longitude-174.9952°
Altitude1,460.283 km
Speed7.138 km/s
True Right ascension15h 03m 06s
True Declination0° 00' 00"
Sunlit
Object was in daylight at TLE epoch
Visualization TLE readout
Latitude54.84576°
Longitude-106.74916°
Altitude1,494.959 km
Speed7.114 km/s
Apparent Right ascension03h 02m 53s
Apparent Declination70° 56' 39"
Sunlit
Object is in daylight
Visualization observer readout
Local Sidereal Time19:00:46
Azimuth18.689° NNE
Elevation28.64°
Doppler factor1
Orbital elements
Apogee altitude1,483.671 km
Perigee altitude1,450.076 km
Semi-major axis7,845.011 km
Eccentricity0.0021412
Inclination101.6227°
RAAN225.7779°
Arg. of periapsis46.4269°
True anomaly313.68025°
Mean anomaly313.8575°
Eccentric anomaly313.76891°
Mean motion3.12358 °/min
BSTAR0.00036304
Orbital period115.25 mins
Loading maneuver chart data...
Loading historical data...
Loading historical data...
Loading historical data...
Loading historical data...
Loading historical data...
Loading historical data...
Loading historical data...

DELTA 1 DEB Visibility forecast

Observer location: undefined°, undefined

Span
Click to sort rows by Start time (UTC) header in descending order
Start Az.
Max El. time (UTC)
Max El. Az.
Max El.
End time (UTC)
End Az.
4 mins2024-12-26 19:38:04.823Z18.778° NNE2024-12-26 19:38:04.823Z18.778° NNE25.624°2024-12-26 19:42:04.823Z357.396° N
14 mins2024-12-26 21:21:04.823Z189.432° SSW2024-12-26 21:28:04.823Z266.798° W37.137°2024-12-26 21:35:04.823Z330.455° NNW
14 mins2024-12-27 09:26:04.823Z26.706° NE2024-12-27 09:33:04.823Z120.683° SE41.597°2024-12-27 09:40:04.823Z183.489° SSW
12 mins2024-12-27 11:20:04.823Z350.646° N2024-12-27 11:25:04.823Z304.406° NW27.013°2024-12-27 11:32:04.823Z246.44° WSW
9 mins2024-12-27 18:37:04.823Z81.645° E2024-12-27 18:41:04.823Z49.155° ENE18.294°2024-12-27 18:46:04.823Z11.377° NNE
|